Location: Poprad
(49.0500°N, 20.3000°E)
Time: 17:41:30
(UTC+02:00)

RS-44 - Pass Details

Date: 21 April 2024
Orbit: 1174 x 1511 km, 82.5° (Epoch: 20 May)

Event Time Altitude Azimuth Distance (km) Brightness Sun altitude
Rises 21:48:42 0° 219° (SW) 4,632 ? -18.3°
Reaches altitude 10° 21:51:57 10° 228° (SW) 3,637 ? -18.7°
Maximum altitude 21:59:56 38° 293° (WNW) 2,098 ? -19.6°
Drops below altitude 10° 22:07:35 10° 359° (N) 3,471 ? -20.4°
Sets 22:10:39 0° 8° (N) 4,400 ? -20.7°
